Location: Middelsbur
(53.6609°N, 7.5020°E)
Time: 23:41:29
(UTC+00:00)

Cosmos 1151 Rocket - Pass Details

Date: 06 July 2020
Orbit: 591 x 617 km, 82.5° (Epoch: 14 August)

Event Time Altitude Azimuth Distance (km) Brightness Sun altitude
Rises 22:06:02 0° 353° (N) 2,887 8.3 -11.4°
Reaches altitude 10° 22:08:23 10° 1° (N) 1,973 6.9 -11.5°
Maximum altitude 22:12:31 40° 71° (ENE) 900 3.9 -11.7°
Enters shadow 22:15:44 15° 137° (SE) 1,639 4.7 -11.9°
